Weather History for Valparaiso, IN

Change the Weather History Date:

Thursday, November 1, 2012

  Actual Average Record
Temperature  
Mean Temperature 42 °F 47 °F  
Max Temperature 54 °F 56 °F 76 °F (1999)
Min Temperature 30 °F 38 °F 26 °F (2002)
Degree Days  
Heating Degree Days 23 18  
Month to date heating degree days 23 18  
Since 1 July heating degree days 590 548  
Cooling Degree Days 0 0  
Month to date cooling degree days 0 0  
Year to date cooling degree days 1054 713  
Moisture  
Dew Point 26 °F    
Average Humidity 52    
Maximum Humidity 72    
Minimum Humidity 22    
Precipitation  
Precipitation 0.00 in 0.14 in 1.26 in (2004)
Month to date precipitation 0.00 0.14  
Year to date precipitation 23.91 32.14  
Sea Level Pressure  
Sea Level Pressure 29.86 in    
Wind  
Wind Speed 7 mph (WNW)    
Max Wind Speed 15 mph    
Max Gust Speed 21 mph    
Visibility 10 miles    
Events      
T = Trace of Precipitation, MM = Missing Value Source: NWS Daily Summary

Daily Weather History Graph

Daily Weather History Graph

Search for Another Location

Airport:

Trip Planner

Search our weather history database for the weather conditions in past years. The results will help you decide how hot, cold, wet, or windy it might be!

Date:

Astronomy

Nov. 01, 2012 Rise Set
Actual Time 7:20 AM CDT 5:42 PM CDT
Civil Twilight 6:51 AM CDT 6:11 PM CDT
Nautical Twilight 6:18 AM CDT 6:43 PM CDT
Astronomical Twilight 5:46 AM CDT 7:16 PM CDT
Moon 7:37 PM CDT (11/1) 9:54 AM CDT (11/1)
Length of Visible Light 11h 19m
Length of Day
10h 22m
Waning Gibbous, 93% of the Moon is Illuminated
Nov 1
Waning Gibbous
Nov 6
Last Quarter
Nov 13
New
Nov 20
First Quarter
Nov 28
Full

Hourly Weather History & Observations

Time (CDT) Temp. Windchill Dew Point Humidity Pressure Visibility Wind Dir Wind Speed Gust Speed Precip Events Conditions
12:53 AM 41.0 °F 35.8 °F 27.0 °F 57% 29.83 in 10.0 mi WNW 8.1 mph - N/A   Clear
1:53 AM 37.9 °F 32.1 °F 26.1 °F 62% 29.84 in 10.0 mi West 8.1 mph - N/A   Clear
3:53 AM 32.0 °F 25.6 °F 23.0 °F 69% 29.84 in 10.0 mi West 6.9 mph - N/A   Clear
5:53 AM 30.9 °F 24.3 °F 23.0 °F 72% 29.85 in 10.0 mi West 6.9 mph - N/A   Overcast
7:53 AM 34.0 °F 26.0 °F 19.9 °F 56% 29.86 in 10.0 mi West 10.4 mph - N/A   Overcast
8:53 AM 37.0 °F 29.8 °F 21.0 °F 52% 29.88 in 10.0 mi West 10.4 mph - N/A   Partly Cloudy
9:53 AM 42.1 °F 36.6 °F 21.0 °F 43% 29.88 in 10.0 mi WNW 9.2 mph - N/A   Mostly Cloudy
10:53 AM 46.0 °F 41.0 °F 21.9 °F 39% 29.89 in 10.0 mi West 10.4 mph - N/A   Overcast
11:53 AM 48.9 °F - 18.0 °F 29% 29.88 in 10.0 mi NW 10.4 mph 18.4 mph N/A   Mostly Cloudy
12:53 PM 50.0 °F - 12.0 °F 22% 29.86 in 10.0 mi NW 9.2 mph 18.4 mph N/A   Mostly Cloudy
1:53 PM 52.0 °F - 26.1 °F 37% 29.84 in 10.0 mi NNW 11.5 mph 18.4 mph N/A   Partly Cloudy
2:53 PM 54.0 °F - 25.0 °F 33% 29.82 in 10.0 mi West 6.9 mph - N/A   Mostly Cloudy
3:53 PM 52.0 °F - 28.0 °F 40% 29.83 in 10.0 mi West 13.8 mph - N/A   Overcast
4:53 PM 48.9 °F - 30.0 °F 48% 29.84 in 10.0 mi West 9.2 mph - N/A   Mostly Cloudy
5:53 PM 45.0 °F 41.2 °F 30.0 °F 56% 29.85 in 10.0 mi West 6.9 mph - N/A   Mostly Cloudy
6:53 PM 46.9 °F - 28.9 °F 50% 29.86 in 10.0 mi Calm Calm - N/A   Mostly Cloudy
7:53 PM 42.1 °F - 30.0 °F 62% 29.86 in 10.0 mi Calm Calm - N/A   Mostly Cloudy
8:53 PM 42.1 °F 40.2 °F 30.0 °F 62% 29.88 in 10.0 mi NNW 3.5 mph - N/A   Mostly Cloudy
9:53 PM 43.0 °F 41.3 °F 32.0 °F 65% 29.88 in 10.0 mi NNW 3.5 mph - N/A   Mostly Cloudy
10:53 PM 43.0 °F 40.3 °F 34.0 °F 71% 29.88 in 10.0 mi North 4.6 mph - N/A   Mostly Cloudy
11:53 PM 43.0 °F 40.3 °F 33.1 °F 68% 29.89 in 10.0 mi NNW 4.6 mph - N/A   Overcast